This is the latest recevied weather packets stored in our database for station/object W4TJP. If no packets are shown the sender has not sent any weather packets the latest 1 day(s).
| Time | Temp. | Humidity | Pressure | Rain* | Wind** | Luminosity | Snow |
|---|---|---|---|---|---|---|---|
| 1778043729 | 18.89° C | 71% | 1009.5 hPa | 0 mm | 0 m/s | 0 W/m² | - |
| 1778043426 | 18.89° C | 72% | 1009.7 hPa | 0 mm | 0.45 m/s, 136° | 0 W/m² | - |
| 1778043123 | 18.89° C | 72% | 1009.5 hPa | 0 mm | 0.45 m/s, 178° | 0 W/m² | - |
| 1778042821 | 18.89° C | 72% | 1009.8 hPa | 0 mm | 0.89 m/s, 113° | 0 W/m² | - |
| 1778042517 | 18.89° C | 72% | 1009.5 hPa | 0 mm | 0.45 m/s, 145° | 0 W/m² | - |
| 1778042214 | 18.89° C | 72% | 1009.7 hPa | 0 mm | 0.89 m/s, 102° | 0 W/m² | - |
| 1778041912 | 18.89° C | 72% | 1010 hPa | 0 mm | 0.45 m/s, 230° | 0 W/m² | - |
| 1778041611 | 18.89° C | 71% | 1010 hPa | 0 mm | 0 m/s | 0 W/m² | - |
| 1778041309 | 18.89° C | 71% | 1009.7 hPa | 0 mm | 0.45 m/s, 148° | 0 W/m² | - |
| 1778041007 | 18.89° C | 70% | 1009.7 hPa | 0 mm | 0.89 m/s, 100° | 0 W/m² | - |
| 1778040703 | 18.89° C | 71% | 1009.7 hPa | 0 mm | 2.24 m/s, 352° | 0 W/m² | - |
| 1778040401 | 18.89° C | 70% | 1009.8 hPa | 0 mm | 0.89 m/s, 182° | 0 W/m² | - |
| 1778040098 | 18.89° C | 71% | 1009.8 hPa | 0 mm | 0.89 m/s, 138° | 0 W/m² | - |
| 1778039795 | 18.33° C | 72% | 1010.2 hPa | 0 mm | 0.45 m/s, 143° | 0 W/m² | - |
| 1778039491 | 18.33° C | 71% | 1009.8 hPa | 0 mm | 0.89 m/s, 116° | 0 W/m² | - |
| 1778039189 | 18.33° C | 72% | 1009.6 hPa | 0 mm | 0.89 m/s, 81° | 0 W/m² | - |
| 1778038885 | 18.33° C | 72% | 1009.7 hPa | 0 mm | 0.45 m/s, 112° | 0 W/m² | - |
| 1778038583 | 18.33° C | 71% | 1010 hPa | 0 mm | 0.45 m/s, 125° | 0 W/m² | - |
| 1778038280 | 18.33° C | 71% | 1010.1 hPa | 0 mm | 0 m/s | 0 W/m² | - |
| 1778037977 | 17.78° C | 71% | 1009.9 hPa | 0 mm | 0.89 m/s, 168° | 0 W/m² | - |
| 1778037674 | 18.33° C | 71% | 1009.7 hPa | 0 mm | 0.89 m/s, 179° | 0 W/m² | - |
| 1778037371 | 18.33° C | 71% | 1009.7 hPa | 0 mm | 0.45 m/s, 128° | 0 W/m² | - |
| 1778037068 | 17.78° C | 71% | 1009.7 hPa | 0 mm | 0.45 m/s, 170° | 0 W/m² | - |
| 1778036767 | 17.78° C | 71% | 1010.1 hPa | 0 mm | 0.45 m/s, 157° | 0 W/m² | - |
| 1778036463 | 17.78° C | 71% | 1009.7 hPa | 0 mm | 0.45 m/s, 143° | 0 W/m² | - |
* Rain latest hour (hover to see other rain measurements)
** Current wind speed in m/s (hover to see current wind gust speed)